| time (UTC) | temp F | wind direction | speed knots | gust knots | rain 1hr in | rain 24hr in | rain mn in | humidity % | barometer mb |
| 20260504200458 | 71 | 141 | 0.9 | 7.0 | 0.00 | 0.00 | 0.00 | 41 | 1012.4 |
| 20260504195955 | 70 | 155 | 6.1 | 8.7 | 0.00 | 0.00 | 0.00 | 42 | 1012.5 |
| 20260504195451 | 69 | 96 | 0.9 | 8.7 | 0.00 | 0.00 | 0.00 | 43 | 1012.7 |
| 20260504194948 | 69 | 189 | 0.9 | 3.5 | 0.00 | 0.00 | 0.00 | 45 | 1012.8 |
| 20260504194444 | 70 | 257 | 2.6 | 5.2 | 0.00 | 0.00 | 0.00 | 43 | 1012.7 |
| 20260504193940 | 73 | 197 | 5.2 | 7.8 | 0.00 | 0.00 | 0.00 | 40 | 1012.7 |
| 20260504193437 | 71 | 177 | 3.5 | 9.6 | 0.00 | 0.00 | 0.00 | 42 | 1012.9 |
| 20260504192936 | 70 | 114 | 7.0 | 12.2 | 0.00 | 0.00 | 0.00 | 43 | 1013.0 |
| 20260504192432 | 71 | 245 | 6.1 | 8.7 | 0.00 | 0.00 | 0.00 | 40 | 1013.0 |
| 20260504191932 | 71 | 233 | 3.5 | 13.0 | 0.00 | 0.00 | 0.00 | 42 | 1013.5 |
| 20260504191429 | 69 | 222 | 6.1 | 8.7 | 0.00 | 0.00 | 0.00 | 45 | 1013.5 |
| 20260504190924 | 69 | 231 | 7.8 | 11.3 | 0.00 | 0.00 | 0.00 | 43 | 1013.6 |
| 20260504190420 | 69 | 175 | 7.8 | 12.2 | 0.00 | 0.00 | 0.00 | 45 | 1013.7 |
| 20260504185917 | 69 | 265 | 5.2 | 8.7 | 0.00 | 0.00 | 0.00 | 44 | 1013.5 |
| 20260504185415 | 70 | 273 | 2.6 | 9.6 | 0.00 | 0.00 | 0.00 | 47 | 1013.6 |
| 20260504184910 | 68 | 150 | 3.5 | 8.7 | 0.00 | 0.00 | 0.00 | 46 | 1013.7 |
| 20260504184406 | 67 | 175 | 4.3 | 7.0 | 0.00 | 0.00 | 0.00 | 49 | 1013.8 |
| 20260504183902 | 68 | 248 | 3.5 | 7.0 | 0.00 | 0.00 | 0.00 | 48 | 1013.8 |
| 20260504183400 | 67 | 147 | 4.3 | 9.6 | 0.00 | 0.00 | 0.00 | 46 | 1013.8 |
| 20260504182857 | 68 | 224 | 4.3 | 8.7 | 0.00 | 0.00 | 0.00 | 48 | 1013.8 |
| 20260504182354 | 69 | 272 | 2.6 | 7.8 | 0.00 | 0.00 | 0.00 | 49 | 1014.1 |
| 20260504181851 | 68 | 118 | 3.5 | 12.2 | 0.00 | 0.00 | 0.00 | 46 | 1014.0 |
| 20260504181348 | 69 | 267 | 2.6 | 9.6 | 0.00 | 0.00 | 0.00 | 45 | 1014.0 |
| 20260504180847 | 67 | 282 | 3.5 | 7.0 | 0.00 | 0.00 | 0.00 | 47 | 1014.0 |
| 20260504180345 | 68 | 173 | 5.2 | 8.7 | 0.00 | 0.00 | 0.00 | 47 | 1014.1 |
| 20260504175843 | 68 | 166 | 5.2 | 9.6 | 0.00 | 0.00 | 0.00 | 45 | 1014.3 |
| 20260504175339 | 66 | 193 | 3.5 | 7.8 | 0.00 | 0.00 | 0.00 | 47 | 1014.4 |
| 20260504174838 | 65 | 184 | 4.3 | 7.0 | 0.00 | 0.00 | 0.00 | 49 | 1014.5 |
| 20260504174335 | 66 | 191 | 6.1 | 11.3 | 0.00 | 0.00 | 0.00 | 47 | 1014.6 |
| 20260504173832 | 67 | 301 | 6.1 | 7.8 | 0.00 | 0.00 | 0.00 | 44 | 1014.4 |
| 20260504173329 | 67 | 210 | 4.3 | 6.1 | 0.00 | 0.00 | 0.00 | 46 | 1014.4 |
| 20260504172826 | 65 | 302 | 3.5 | 6.1 | 0.00 | 0.00 | 0.00 | 46 | 1014.8 |
| 20260504172322 | 65 | 250 | 7.0 | 8.7 | 0.00 | 0.00 | 0.00 | 45 | 1014.6 |
| 20260504171818 | 65 | 207 | 2.6 | 7.0 | 0.00 | 0.00 | 0.00 | 48 | 1014.8 |
| 20260504171315 | 64 | 239 | 2.6 | 9.6 | 0.00 | 0.00 | 0.00 | 45 | 1014.6 |
| 20260504170813 | 65 | 179 | 4.3 | 7.8 | 0.00 | 0.00 | 0.00 | 46 | 1014.8 |
| 20260504170309 | 66 | 234 | 2.6 | 5.2 | 0.00 | 0.00 | 0.00 | 45 | 1015.0 |
| 20260504160228 | 66 | 196 | 8.7 | 11.3 | 0.00 | 0.00 | 0.00 | 45 | 1015.6 |
| 20260504150653 | 63 | 255 | 3.5 | 8.7 | 0.00 | 0.00 | 0.00 | 48 | 1015.9 |
| 20260504150150 | 62 | 204 | 4.3 | 7.0 | 0.00 | 0.00 | 0.00 | 46 | 1015.9 |
| 20260504141119 | 62 | 259 | 1.7 | 7.8 | 0.00 | 0.00 | 0.00 | 45 | 1016.2 |
| 20260504140615 | 61 | 237 | 5.2 | 6.1 | 0.00 | 0.00 | 0.00 | 45 | 1016.0 |
| 20260504140111 | 61 | 258 | 3.5 | 7.0 | 0.00 | 0.00 | 0.00 | 46 | 1016.1 |
| 20260504130539 | 56 | 288 | 1.7 | 5.2 | 0.00 | 0.00 | 0.00 | 53 | 1016.4 |
| 20260504110427 | 40 | 98 | 0.0 | 0.0 | 0.00 | 0.00 | 0.00 | 85 | 1017.3 |
| 20260504100349 | 40 | 219 | 0.0 | 0.0 | 0.00 | 0.00 | 0.00 | 81 | 1017.4 |
| 20260504081742 | 40 | 66 | 0.9 | 0.9 | 0.00 | 0.00 | 0.00 | 79 | 1017.7 |
| 20260504081238 | 40 | 35 | 0.0 | 0.9 | 0.00 | 0.00 | 0.00 | 79 | 1017.6 |
| 20260504080735 | 39 | 75 | 0.0 | 0.0 | 0.00 | 0.00 | 0.00 | 78 | 1017.6 |
| 20260504080231 | 40 | 75 | 0.0 | 0.0 | 0.00 | 0.00 | 0.00 | 77 | 1017.7 |
| 20260504070159 | 39 | 94 | 0.0 | 0.0 | 0.00 | 0.00 | 0.00 | 81 | 1017.9 |
| 20260504060120 | 39 | 119 | 0.0 | 0.0 | 0.00 | 0.00 | 0.00 | 76 | 1018.2 |
| 20260504050548 | 42 | 137 | 0.0 | 0.0 | 0.00 | 0.00 | 0.00 | 70 | 1018.1 |
| 20260504045542 | 43 | 126 | 0.0 | 0.0 | 0.00 | 0.00 | 0.00 | 71 | 1018.0 |
| 20260504045037 | 42 | 87 | 0.0 | 0.0 | 0.00 | 0.00 | 0.00 | 72 | 1018.1 |
| 20260504044535 | 42 | 87 | 0.0 | 0.0 | 0.00 | 0.00 | 0.00 | 73 | 1018.0 |
| 20260504044032 | 42 | 87 | 0.0 | 0.0 | 0.00 | 0.00 | 0.00 | 73 | 1018.1 |
| 20260504043529 | 42 | 87 | 0.0 | 0.0 | 0.00 | 0.00 | 0.00 | 75 | 1018.0 |
| 20260504043026 | 42 | 77 | 0.0 | 0.0 | 0.00 | 0.00 | 0.00 | 73 | 1018.1 |
| 20260504042523 | 42 | 77 | 0.0 | 0.9 | 0.00 | 0.00 | 0.00 | 72 | 1018.1 |
| 20260504042020 | 42 | 144 | 0.0 | 0.0 | 0.00 | 0.00 | 0.00 | 73 | 1018.2 |
| 20260504041516 | 42 | 155 | 0.0 | 0.0 | 0.00 | 0.00 | 0.00 | 74 | 1018.2 |
| 20260504041012 | 42 | 256 | 0.0 | 0.9 | 0.00 | 0.00 | 0.00 | 76 | 1018.1 |
| 20260504040510 | 43 | 127 | 0.0 | 0.0 | 0.00 | 0.00 | 0.00 | 72 | 1018.1 |
| 20260504040007 | 42 | 108 | 0.9 | 0.9 | 0.00 | 0.00 | 0.00 | 68 | 1018.0 |
| 20260504035504 | 41 | 108 | 0.0 | 0.0 | 0.00 | 0.00 | 0.00 | 73 | 1018.1 |
| 20260504034959 | 42 | 108 | 0.0 | 0.0 | 0.00 | 0.00 | 0.00 | 73 | 1018.0 |
| 20260504034457 | 42 | 98 | 0.0 | 0.9 | 0.00 | 0.00 | 0.00 | 69 | 1018.1 |
| 20260504033954 | 42 | 131 | 0.0 | 0.0 | 0.00 | 0.00 | 0.00 | 72 | 1018.2 |
| 20260504033452 | 43 | 143 | 0.0 | 0.0 | 0.00 | 0.00 | 0.00 | 70 | 1017.9 |
| 20260504032949 | 42 | 132 | 0.9 | 1.7 | 0.00 | 0.00 | 0.00 | 69 | 1018.1 |
| 20260504032446 | 43 | 194 | 0.9 | 0.9 | 0.00 | 0.00 | 0.00 | 73 | 1018.2 |
| 20260504031942 | 43 | 95 | 0.9 | 0.9 | 0.00 | 0.00 | 0.00 | 67 | 1018.0 |
| 20260504031439 | 43 | 126 | 0.0 | 1.7 | 0.00 | 0.00 | 0.00 | 70 | 1018.1 |
| 20260504030936 | 44 | 128 | 0.0 | 0.0 | 0.00 | 0.00 | 0.00 | 68 | 1018.1 |
| 20260504030433 | 43 | 125 | 0.0 | 0.9 | 0.00 | 0.00 | 0.00 | 66 | 1018.3 |
| 20260504025929 | 43 | 137 | 0.0 | 0.0 | 0.00 | 0.00 | 0.00 | 68 | 1018.1 |
| 20260504025426 | 44 | 136 | 0.0 | 0.0 | 0.00 | 0.00 | 0.00 | 69 | 1018.3 |
| 20260504024923 | 43 | 176 | 0.0 | 0.0 | 0.00 | 0.00 | 0.00 | 68 | 1018.1 |
| 20260504024420 | 44 | 176 | 0.0 | 0.0 | 0.00 | 0.00 | 0.00 | 70 | 1018.1 |
| 20260504023917 | 44 | 162 | 0.0 | 0.9 | 0.00 | 0.00 | 0.00 | 68 | 1018.1 |
| 20260504023414 | 44 | 84 | 0.9 | 0.9 | 0.00 | 0.00 | 0.00 | 63 | 1018.2 |
| 20260504022909 | 44 | 89 | 0.0 | 0.0 | 0.00 | 0.00 | 0.00 | 69 | 1018.5 |
| 20260504022406 | 44 | 82 | 0.0 | 0.9 | 0.00 | 0.00 | 0.00 | 71 | 1018.3 |
| 20260504021902 | 44 | 123 | 0.9 | 0.9 | 0.00 | 0.00 | 0.00 | 66 | 1018.5 |
| 20260504021359 | 44 | 111 | 0.9 | 1.7 | 0.00 | 0.00 | 0.00 | 66 | 1018.3 |
| 20260504020856 | 43 | 101 | 0.0 | 0.0 | 0.00 | 0.00 | 0.00 | 68 | 1018.3 |
| 20260504020353 | 43 | 111 | 1.7 | 1.7 | 0.00 | 0.00 | 0.00 | 70 | 1018.3 |
| 20260504015849 | 43 | 51 | 2.6 | 2.6 | 0.00 | 0.00 | 0.00 | 67 | 1018.2 |
| 20260504015345 | 44 | 119 | 0.9 | 0.9 | 0.00 | 0.00 | 0.00 | 70 | 1018.3 |
| 20260504014841 | 44 | 177 | 0.0 | 0.9 | 0.00 | 0.00 | 0.00 | 61 | 1018.5 |
| 20260504014337 | 42 | 148 | 0.9 | 0.9 | 0.00 | 0.00 | 0.00 | 65 | 1018.3 |
| 20260504013835 | 42 | 91 | 0.0 | 0.9 | 0.00 | 0.00 | 0.00 | 68 | 1017.9 |
| 20260504013333 | 42 | 259 | 0.0 | 0.9 | 0.00 | 0.00 | 0.00 | 67 | 1017.9 |
| 20260504012830 | 43 | 273 | 0.9 | 1.7 | 0.00 | 0.00 | 0.00 | 67 | 1017.8 |
| 20260504012328 | 43 | 86 | 0.0 | 0.9 | 0.00 | 0.00 | 0.00 | 63 | 1017.7 |
| 20260504011825 | 42 | 81 | 0.9 | 2.6 | 0.00 | 0.00 | 0.00 | 63 | 1017.7 |
| 20260504011321 | 43 | 231 | 1.7 | 2.6 | 0.00 | 0.00 | 0.00 | 67 | 1017.5 |
| 20260504010817 | 44 | 85 | 0.0 | 0.0 | 0.00 | 0.00 | 0.00 | 62 | 1017.5 |
| 20260504010313 | 43 | 150 | 0.9 | 1.7 | 0.00 | 0.00 | 0.00 | 65 | 1017.5 |
| 20260504005809 | 44 | 231 | 0.0 | 0.0 | 0.00 | 0.00 | 0.00 | 61 | 1017.5 |
| 20260504005306 | 44 | 245 | 0.0 | 1.7 | 0.00 | 0.00 | 0.00 | 62 | 1017.4 |
| 20260504004804 | 44 | 71 | 2.6 | 2.6 | 0.00 | 0.00 | 0.00 | 57 | 1017.4 |
| 20260504004301 | 45 | 229 | 1.7 | 2.6 | 0.00 | 0.00 | 0.00 | 60 | 1017.5 |
| 20260504003757 | 45 | 84 | 1.7 | 2.6 | 0.00 | 0.00 | 0.00 | 53 | 1017.2 |
| 20260504003255 | 45 | 105 | 0.9 | 1.7 | 0.00 | 0.00 | 0.00 | 57 | 1017.3 |
| 20260504002752 | 47 | 100 | 1.7 | 2.6 | 0.00 | 0.00 | 0.00 | 51 | 1017.1 |
| 20260504002248 | 47 | 199 | 0.0 | 0.9 | 0.00 | 0.00 | 0.00 | 53 | 1017.3 |
| 20260504001746 | 47 | 114 | 0.9 | 1.7 | 0.00 | 0.00 | 0.00 | 57 | 1017.1 |
| 20260504001243 | 48 | 69 | 0.0 | 1.7 | 0.00 | 0.00 | 0.00 | 51 | 1017.1 |
| 20260504000740 | 49 | 148 | 0.0 | 0.0 | 0.00 | 0.00 | 0.00 | 55 | 1017.0 |
| 20260504000236 | 49 | 132 | 0.9 | 0.9 | 0.00 | 0.00 | 0.00 | 49 | 1017.1 |
| 20260503235735 | 50 | 113 | 0.9 | 1.7 | 0.00 | 0.00 | 0.00 | 49 | 1017.1 |
| 20260503235232 | 49 | 117 | 1.7 | 2.6 | 0.00 | 0.00 | 0.00 | 50 | 1017.1 |
| 20260503234730 | 50 | 135 | 0.0 | 0.9 | 0.00 | 0.00 | 0.00 | 51 | 1017.1 |
| 20260503234227 | 51 | 122 | 1.7 | 2.6 | 0.00 | 0.00 | 0.00 | 45 | 1017.0 |
| 20260503233724 | 50 | 135 | 2.6 | 2.6 | 0.00 | 0.00 | 0.00 | 43 | 1017.2 |
| 20260503233219 | 53 | 236 | 0.9 | 2.6 | 0.00 | 0.00 | 0.00 | 46 | 1017.2 |
| 20260503232716 | 53 | 80 | 0.0 | 1.7 | 0.00 | 0.00 | 0.00 | 38 | 1017.0 |
| 20260503232213 | 54 | 225 | 0.9 | 1.7 | 0.00 | 0.00 | 0.00 | 36 | 1017.2 |
| 20260503231712 | 54 | 284 | 0.0 | 0.9 | 0.00 | 0.00 | 0.00 | 42 | 1017.0 |
| 20260503231208 | 58 | 227 | 0.9 | 0.9 | 0.00 | 0.00 | 0.00 | 33 | 1017.1 |
| 20260503230704 | 57 | 246 | 1.7 | 1.7 | 0.00 | 0.00 | 0.00 | 34 | 1017.2 |
| 20260503230202 | 58 | 222 | 1.7 | 2.6 | 0.00 | 0.00 | 0.00 | 32 | 1017.0 |
| 20260503225659 | 58 | 329 | 1.7 | 2.6 | 0.00 | 0.00 | 0.00 | 32 | 1017.1 |
| 20260503225154 | 58 | 271 | 1.7 | 7.8 | 0.00 | 0.00 | 0.00 | 35 | 1017.2 |
| 20260503224652 | 59 | 241 | 1.7 | 3.5 | 0.00 | 0.00 | 0.00 | 30 | 1017.2 |
| 20260503224149 | 58 | 267 | 1.7 | 2.6 | 0.00 | 0.00 | 0.00 | 32 | 1017.1 |
| 20260503223647 | 59 | 204 | 1.7 | 7.8 | 0.00 | 0.00 | 0.00 | 32 | 1017.2 |
| 20260503223143 | 59 | 242 | 2.6 | 5.2 | 0.00 | 0.00 | 0.00 | 33 | 1016.9 |
| 20260503222641 | 58 | 173 | 2.6 | 6.1 | 0.00 | 0.00 | 0.00 | 30 | 1016.8 |
| 20260503222138 | 58 | 264 | 5.2 | 7.0 | 0.00 | 0.00 | 0.00 | 31 | 1017.1 |
| 20260503221637 | 60 | 171 | 6.1 | 7.8 | 0.00 | 0.00 | 0.00 | 29 | 1016.8 |
| 20260503221133 | 59 | 261 | 3.5 | 5.2 | 0.00 | 0.00 | 0.00 | 32 | 1016.8 |
| 20260503220630 | 60 | 161 | 0.9 | 2.6 | 0.00 | 0.00 | 0.00 | 32 | 1016.8 |
| 20260503220127 | 61 | 197 | 0.9 | 1.7 | 0.00 | 0.00 | 0.00 | 28 | 1017.0 |
| 20260503215624 | 60 | 70 | 0.9 | 5.2 | 0.00 | 0.00 | 0.00 | 36 | 1016.9 |
| 20260503215120 | 60 | 202 | 3.5 | 5.2 | 0.00 | 0.00 | 0.00 | 33 | 1016.9 |
| 20260503214619 | 58 | 230 | 1.7 | 5.2 | 0.00 | 0.00 | 0.00 | 31 | 1017.0 |
| 20260503214114 | 59 | 157 | 2.6 | 5.2 | 0.00 | 0.00 | 0.00 | 29 | 1017.0 |
| 20260503213609 | 58 | 142 | 1.7 | 3.5 | 0.00 | 0.00 | 0.00 | 29 | 1016.9 |
| 20260503213104 | 59 | 230 | 5.2 | 7.8 | 0.00 | 0.00 | 0.00 | 29 | 1017.1 |
| 20260503212602 | 59 | 238 | 1.7 | 3.5 | 0.00 | 0.00 | 0.00 | 34 | 1017.1 |
| 20260503212059 | 57 | 248 | 2.6 | 7.0 | 0.00 | 0.00 | 0.00 | 34 | 1017.3 |
| 20260503211556 | 58 | 204 | 4.3 | 7.8 | 0.00 | 0.00 | 0.00 | 33 | 1017.3 |
| 20260503211052 | 59 | 113 | 6.1 | 8.7 | 0.00 | 0.00 | 0.00 | 29 | 1017.1 |
| 20260503210549 | 59 | 270 | 1.7 | 2.6 | 0.00 | 0.00 | 0.00 | 30 | 1017.2 |
| 20260503210044 | 58 | 264 | 2.6 | 5.2 | 0.00 | 0.00 | 0.00 | 30 | 1017.2 |
| 20260503205541 | 58 | 259 | 4.3 | 7.0 | 0.00 | 0.00 | 0.00 | 32 | 1017.4 |
| 20260503205038 | 58 | 238 | 3.5 | 5.2 | 0.00 | 0.00 | 0.00 | 33 | 1017.3 |
| 20260503204535 | 58 | 186 | 5.2 | 8.7 | 0.00 | 0.00 | 0.00 | 32 | 1017.3 |
| 20260503204032 | 58 | 247 | 3.5 | 8.7 | 0.00 | 0.00 | 0.00 | 33 | 1017.1 |
| 20260503203529 | 59 | 251 | 6.1 | 8.7 | 0.00 | 0.00 | 0.00 | 31 | 1017.2 |
| 20260503203026 | 57 | 241 | 0.0 | 7.0 | 0.00 | 0.00 | 0.00 | 36 | 1017.6 |
| 20260503202524 | 59 | 211 | 3.5 | 7.8 | 0.00 | 0.00 | 0.00 | 34 | 1017.6 |
| 20260503202022 | 60 | 268 | 0.9 | 3.5 | 0.00 | 0.00 | 0.00 | 28 | 1017.5 |
| 20260503201520 | 60 | 184 | 0.0 | 1.7 | 0.00 | 0.00 | 0.00 | 33 | 1017.7 |
| 20260503201017 | 59 | 90 | 1.7 | 2.6 | 0.00 | 0.00 | 0.00 | 31 | 1017.5 |